Regional Weather Roundup
Issued by NWS Lake Charles, LA

Home | Current Version | Previous Version | Text Only | Print | Product List | Glossary On
Versions: 1 2 3 4 5 6 7 8 9 10 11 12 13 14 15 16 17 18 19 20 21 22 23 24 25 26 27 28 29 30 31 32 33 34 35 36 37 38 39 40 41 42 43 44 45 46 47 48 49 50
000
ASUS44 KLCH 271810
RWRLCH
RWRLCH
REGIONAL WEATHER ROUNDUP
NATIONAL WEATHER SERVICE LAKE CHARLES LA
100 PM CDT MON APR 27 2015

Note: "fair" indicates few or no clouds below 12,000 feet with no
significant weather and/or obstructions to visibility.


ACROSS SOUTHEAST TEXAS

CITY           SKY/WX    TMP DP  RH WIND       PRES   REMARKS
BEAUMONT       PTSUNNY   73  64  73 E20       29.69F
BEAUMONT CITY  CLOUDY    72  62  70 E13       29.70F
ORANGE         MOCLDY    69  61  75 E12       29.72F
JASPER         NOT AVBL
$$

ACROSS CENTRAL LOUISIANA

CITY           SKY/WX    TMP DP  RH WIND       PRES   REMARKS
LEESVILLE      CLOUDY    72  61  67 E10G18    29.73R
FULLERTON      MOCLDY    74  61  63 VRB3      29.72R THUNDER
ALEXANDRIA INT MOSUNNY  N/A N/A N/A VRB7      29.77R THUNDER
ESLER FIELD    MOSUNNY   71  60  68 NE9       29.75R
DERIDDER       MOCLDY    71  62  73 E7        29.75S
OAKDALE        CLOUDY    68  62  82 NE7       29.74F
OPELOUSAS      CLOUDY    68  64  85 E10G16    29.73S THUNDER
$$

ACROSS SOUTHWEST AND SOUTH CENTRAL LOUISIANA

CITY           SKY/WX    TMP DP  RH WIND       PRES   REMARKS
SULPHUR        MOCLDY    71  65  81 E10G17    29.73S
LAKE CHARLES   PTSUNNY   71  63  75 E16       29.72S
CHENNAULT INT  PTSUNNY   70  64  83 E13G21    29.72F THUNDER
CAMERON PHI    CLEAR     72  64  78 E13G21    29.73F
DEQUINCY       MOCLDY    69  64  83 E9G20     29.72F
JENNINGS       CLOUDY    70  64  80 E12G23    29.74R
LAFAYETTE      PTSUNNY   70  63  78 E12G21    29.72F
NEW IBERIA     CLOUDY   N/A N/A N/A E12       29.73F
ABBEVILLE      MOCLDY    69  64  84 E9G20     29.73F
PATTERSON      NOT AVBL
SALT POINT       N/A     66  64  93 E8G18     29.75F
$$

SELECTED SITES ACROSS THE REGION

CITY           SKY/WX    TMP DP  RH WIND       PRES   REMARKS
HOUSTON BUSH   CLOUDY    75  66  73 E9        29.68S
HOUSTON HOBBY  CLOUDY    75  66  73 E8        29.68S
GALVESTON      CLOUDY    74  67  78 E22G28    29.67R
COLLEGE STAT   SUNNY     78  67  68 S3        29.67F
CONROE         MOSUNNY   77  65  66 E12       29.68F
HUNTSVILLE     SUNNY     77  65  66 E5        29.68F
LUFKIN         MOSUNNY   77  62  59 E15       29.72
SHREVEPORT     PTSUNNY   69  54  58 NE15G25   29.78S
MONROE         SUNNY     69  54  58 E15       29.87R
NATCHEZ MS     PTSUNNY   68  59  73 NE13G18   29.76R
BATON ROUGE    CLOUDY    67  60  78 E21G29    29.73F
N.O. INTL ARPT TSTM      67  62  84 E24G40    29.78F
SLIDELL        RAIN      62  61  96 E23G35    29.77F FOG
$$

MARINE REPORTS

STATION/POSITION TIME  TEMP    WIND        PRES    VSBY  WAVE
                       AIR SEA DIR/SP/G                  HT/PER
                 (UTC) (F)     (DEG/KT/KT) (MB)    (MI)  (FT/S)
BUOY 30 S HIGH I 1750   72 74   80/ 23/ 27 1003.3F         5/ 5
SEA RIM ST PARK  1800   72      90/ 17/ 22 1005.7F
PORT ARTHUR      1700      74   80/ 12/ 17 1006.1R
SABINE PASS N    1700   70 76   70/ 17/ 22 1005.9R
TEXAS POINT      NOT AVBL
CALCASIEU PASS   1700   69 76   80/ 12/ 19   N/A
LK CHARLES BEACH 1700   66 72              1006.8F
MARSH ISLAND     1700   68      90/ 18/ 20   N/A           0
FRESH WATER LOCK 1700   66 77  100/  8/ 16 1006.9F
AMERADA PASS     1700   64 69   80/  6/ 11 1008.4F
$$


USA.gov is the U.S. government's official web portal to all federal, state and local government web resources and services.